Time,TemperatureF,DewpointF,PressureIn,WindDirection,WindDirectionDegrees,WindSpeedMPH,WindSpeedGustMPH,Humidity,HourlyPrecipIn,Conditions,Clouds,dailyrainin,SolarRadiationWatts/m^2,SoftwareType,DateUTC
2013-02-23 00:01:00,35.0,27.0,-100.00,WSW,254,2.0,5.0,72,0.00,,,0.15,0.000000,,2013-02-23 08:01:00,
2013-02-23 00:11:00,35.0,27.0,-100.00,WSW,254,2.0,5.0,72,0.00,,,0.15,0.000000,,2013-02-23 08:11:00,
2013-02-23 00:21:00,35.0,27.0,-100.00,WSW,254,2.0,5.0,72,0.00,,,0.15,0.000000,,2013-02-23 08:21:00,
2013-02-23 00:42:00,35.0,25.0,-100.00,WSW,244,2.0,5.0,66,0.00,,,0.15,0.000000,,2013-02-23 08:42:00,
2013-02-23 00:52:00,35.0,25.0,-100.00,WSW,244,2.0,5.0,66,0.00,,,0.15,0.000000,,2013-02-23 08:52:00,
2013-02-23 01:01:00,35.0,25.0,-100.00,WSW,244,2.0,5.0,66,0.00,,,0.15,0.000000,,2013-02-23 09:01:00,
2013-02-23 01:11:00,35.0,25.0,-100.00,WSW,244,2.0,5.0,66,0.00,,,0.15,0.000000,,2013-02-23 09:11:00,
2013-02-23 01:21:00,35.0,25.0,-100.00,WSW,244,2.0,5.0,66,0.00,,,0.15,0.000000,,2013-02-23 09:21:00,
2013-02-23 01:42:00,35.0,24.0,-100.00,SW,223,4.0,8.0,64,0.00,,,0.15,0.000000,,2013-02-23 09:42:00,
2013-02-23 01:52:00,35.0,24.0,-100.00,SW,223,4.0,8.0,64,0.00,,,0.15,0.000000,,2013-02-23 09:52:00,
2013-02-23 02:01:00,35.0,24.0,-100.00,SW,223,4.0,8.0,64,0.00,,,0.15,0.000000,,2013-02-23 10:01:00,
2013-02-23 02:11:00,35.0,24.0,-100.00,SW,223,4.0,8.0,64,0.00,,,0.15,0.000000,,2013-02-23 10:11:00,
2013-02-23 02:21:00,35.0,24.0,-100.00,SW,223,4.0,8.0,64,0.00,,,0.15,0.000000,,2013-02-23 10:21:00,
2013-02-23 02:42:00,34.0,24.0,-100.00,WSW,240,5.0,14.0,66,0.00,,,0.15,0.000000,,2013-02-23 10:42:00,
2013-02-23 02:52:00,34.0,24.0,-100.00,WSW,240,5.0,14.0,66,0.00,,,0.15,0.000000,,2013-02-23 10:52:00,
2013-02-23 03:02:00,34.0,24.0,-100.00,WSW,240,5.0,14.0,66,0.00,,,0.15,0.000000,,2013-02-23 11:02:00,
2013-02-23 03:11:00,34.0,24.0,-100.00,WSW,240,5.0,14.0,66,0.00,,,0.15,0.000000,,2013-02-23 11:11:00,
2013-02-23 03:21:00,34.0,24.0,-100.00,WSW,240,5.0,14.0,66,0.00,,,0.15,0.000000,,2013-02-23 11:21:00,
2013-02-23 03:42:00,35.0,27.0,-100.00,SW,231,10.0,17.0,72,0.00,,,0.15,0.000000,,2013-02-23 11:42:00,
2013-02-23 03:52:00,35.0,27.0,-100.00,SW,231,10.0,17.0,72,0.00,,,0.15,0.000000,,2013-02-23 11:52:00,
2013-02-23 04:01:00,35.0,27.0,-100.00,SW,231,10.0,17.0,72,0.00,,,0.15,0.000000,,2013-02-23 12:01:00,
2013-02-23 04:11:00,35.0,27.0,-100.00,SW,231,10.0,17.0,72,0.00,,,0.15,0.000000,,2013-02-23 12:11:00,
2013-02-23 04:21:00,35.0,27.0,-100.00,SW,231,10.0,17.0,72,0.00,,,0.15,0.000000,,2013-02-23 12:21:00,
2013-02-23 04:42:00,33.0,28.0,-100.00,SW,236,12.0,25.0,82,0.00,,,0.15,0.000000,,2013-02-23 12:42:00,
2013-02-23 04:52:00,33.0,28.0,-100.00,SW,236,12.0,25.0,82,0.00,,,0.15,0.000000,,2013-02-23 12:52:00,
2013-02-23 05:01:00,33.0,28.0,-100.00,SW,236,12.0,25.0,82,0.00,,,0.15,0.000000,,2013-02-23 13:01:00,
2013-02-23 05:11:00,33.0,28.0,-100.00,SW,236,12.0,25.0,82,0.00,,,0.15,0.000000,,2013-02-23 13:11:00,
2013-02-23 05:22:00,33.0,28.0,-100.00,SW,236,12.0,25.0,82,0.00,,,0.15,0.000000,,2013-02-23 13:22:00,
2013-02-23 05:42:00,31.0,29.0,-100.00,WSW,240,9.0,23.0,93,0.00,,,0.15,0.000000,,2013-02-23 13:42:00,
2013-02-23 05:52:00,31.0,29.0,-100.00,WSW,240,9.0,23.0,93,0.00,,,0.15,0.000000,,2013-02-23 13:52:00,
2013-02-23 06:02:00,31.0,29.0,-100.00,WSW,240,9.0,23.0,93,0.00,,,0.15,0.000000,,2013-02-23 14:02:00,
2013-02-23 06:11:00,31.0,29.0,-100.00,WSW,240,9.0,23.0,93,0.00,,,0.15,0.000000,,2013-02-23 14:11:00,
2013-02-23 06:21:00,31.0,29.0,-100.00,WSW,240,9.0,23.0,93,0.00,,,0.15,0.000000,,2013-02-23 14:21:00,
2013-02-23 06:42:00,30.0,29.0,-100.00,SW,226,6.0,18.0,97,0.00,,,0.15,0.000000,,2013-02-23 14:42:00,
2013-02-23 06:52:00,30.0,29.0,-100.00,SW,226,6.0,18.0,97,0.00,,,0.15,0.000000,,2013-02-23 14:52:00,
2013-02-23 07:01:00,30.0,29.0,-100.00,SW,226,6.0,18.0,97,0.00,,,0.15,0.000000,,2013-02-23 15:01:00,
2013-02-23 07:11:00,30.0,29.0,-100.00,SW,226,6.0,18.0,97,0.00,,,0.15,0.000000,,2013-02-23 15:11:00,
2013-02-23 07:21:00,30.0,29.0,-100.00,SW,226,6.0,18.0,97,0.00,,,0.15,0.000000,,2013-02-23 15:21:00,
2013-02-23 07:42:00,30.0,29.0,-100.00,West,267,9.0,19.0,98,0.00,,,0.15,2.000000,,2013-02-23 15:42:00,
2013-02-23 07:52:00,30.0,29.0,-100.00,West,267,9.0,19.0,98,0.00,,,0.15,2.000000,,2013-02-23 15:52:00,
2013-02-23 08:01:00,30.0,29.0,-100.00,West,267,9.0,19.0,98,0.00,,,0.15,2.000000,,2013-02-23 16:01:00,
2013-02-23 08:11:00,30.0,29.0,-100.00,West,267,9.0,19.0,98,0.00,,,0.15,2.000000,,2013-02-23 16:11:00,
2013-02-23 08:21:00,30.0,29.0,-100.00,West,267,9.0,19.0,98,0.00,,,0.15,2.000000,,2013-02-23 16:21:00,
2013-02-23 08:42:00,30.0,29.0,-100.00,WSW,246,7.0,15.0,95,0.00,,,0.15,45.000000,,2013-02-23 16:42:00,
2013-02-23 08:52:00,30.0,29.0,-100.00,WSW,246,7.0,15.0,95,0.00,,,0.15,45.000000,,2013-02-23 16:52:00,
2013-02-23 09:01:00,30.0,29.0,-100.00,WSW,246,7.0,15.0,95,0.00,,,0.15,45.000000,,2013-02-23 17:01:00,
2013-02-23 09:11:00,30.0,29.0,-100.00,WSW,246,7.0,15.0,95,0.00,,,0.15,45.000000,,2013-02-23 17:11:00,
2013-02-23 09:21:00,30.0,29.0,-100.00,WSW,246,7.0,15.0,95,0.00,,,0.15,45.000000,,2013-02-23 17:21:00,
2013-02-23 09:42:00,30.0,27.0,-100.00,WSW,242,6.0,13.0,89,0.00,,,0.15,125.000000,,2013-02-23 17:42:00,
2013-02-23 09:52:00,30.0,27.0,-100.00,WSW,242,6.0,13.0,89,0.00,,,0.15,125.000000,,2013-02-23 17:52:00,
2013-02-23 10:01:00,30.0,27.0,-100.00,WSW,242,6.0,13.0,89,0.00,,,0.15,125.000000,,2013-02-23 18:01:00,
2013-02-23 10:12:00,30.0,27.0,-100.00,WSW,242,6.0,13.0,89,0.00,,,0.15,125.000000,,2013-02-23 18:12:00,
2013-02-23 10:21:00,30.0,27.0,-100.00,WSW,242,6.0,13.0,89,0.00,,,0.15,125.000000,,2013-02-23 18:21:00,
2013-02-23 10:42:00,36.0,30.0,-100.00,WNW,288,2.0,10.0,80,0.00,,,0.13,348.000000,,2013-02-23 18:42:00,
2013-02-23 10:52:00,36.0,30.0,-100.00,WNW,288,2.0,10.0,80,0.00,,,0.13,348.000000,,2013-02-23 18:52:00,
2013-02-23 11:01:00,36.0,30.0,-100.00,WNW,288,2.0,10.0,80,0.00,,,0.13,348.000000,,2013-02-23 19:01:00,
2013-02-23 11:11:00,36.0,30.0,-100.00,WNW,288,2.0,10.0,80,0.00,,,0.13,348.000000,,2013-02-23 19:11:00,
2013-02-23 11:21:00,36.0,30.0,-100.00,WNW,288,2.0,10.0,80,0.00,,,0.13,348.000000,,2013-02-23 19:21:00,
2013-02-23 11:42:00,34.0,30.0,-100.00,East,86,4.0,7.0,86,0.00,,,0.09,299.000000,,2013-02-23 19:42:00,
2013-02-23 11:52:00,34.0,30.0,-100.00,East,86,4.0,7.0,86,0.00,,,0.09,299.000000,,2013-02-23 19:52:00,
2013-02-23 12:01:00,34.0,30.0,-100.00,East,86,4.0,7.0,86,0.00,,,0.09,299.000000,,2013-02-23 20:01:00,
2013-02-23 12:11:00,34.0,30.0,-100.00,East,86,4.0,7.0,86,0.00,,,0.09,299.000000,,2013-02-23 20:11:00,
2013-02-23 12:21:00,34.0,30.0,-100.00,East,86,4.0,7.0,86,0.00,,,0.09,299.000000,,2013-02-23 20:21:00,
2013-02-23 12:42:00,33.0,28.0,-100.00,WNW,289,9.0,16.0,83,0.03,,,0.08,531.000000,,2013-02-23 20:42:00,
2013-02-23 12:52:00,33.0,28.0,-100.00,WNW,289,9.0,16.0,83,0.03,,,0.08,531.000000,,2013-02-23 20:52:00,
2013-02-23 13:01:00,33.0,28.0,-100.00,WNW,289,9.0,16.0,83,0.03,,,0.08,531.000000,,2013-02-23 21:01:00,
2013-02-23 13:11:00,33.0,28.0,-100.00,WNW,289,9.0,16.0,83,0.03,,,0.08,531.000000,,2013-02-23 21:11:00,
2013-02-23 13:21:00,33.0,28.0,-100.00,WNW,289,9.0,16.0,83,0.03,,,0.08,531.000000,,2013-02-23 21:21:00,
2013-02-23 13:42:00,38.0,30.0,-100.00,SW,231,3.0,11.0,74,0.02,,,0.07,477.000000,,2013-02-23 21:42:00,
2013-02-23 13:52:00,38.0,30.0,-100.00,SW,231,3.0,11.0,74,0.02,,,0.07,477.000000,,2013-02-23 21:52:00,
2013-02-23 14:01:00,38.0,30.0,-100.00,SW,231,3.0,11.0,74,0.02,,,0.07,477.000000,,2013-02-23 22:01:00,
2013-02-23 14:11:00,38.0,30.0,-100.00,SW,231,3.0,11.0,74,0.02,,,0.07,477.000000,,2013-02-23 22:11:00,
2013-02-23 14:21:00,38.0,30.0,-100.00,SW,231,3.0,11.0,74,0.02,,,0.07,477.000000,,2013-02-23 22:21:00,
2013-02-23 14:42:00,35.0,28.0,-100.00,WSW,238,5.0,15.0,75,0.01,,,0.06,508.000000,,2013-02-23 22:42:00,
2013-02-23 14:52:00,35.0,28.0,-100.00,WSW,238,5.0,15.0,75,0.01,,,0.06,508.000000,,2013-02-23 22:52:00,
2013-02-23 15:01:00,35.0,28.0,-100.00,WSW,238,5.0,15.0,75,0.01,,,0.06,508.000000,,2013-02-23 23:01:00,
2013-02-23 15:11:00,35.0,28.0,-100.00,WSW,238,5.0,15.0,75,0.01,,,0.06,508.000000,,2013-02-23 23:11:00,
2013-02-23 15:21:00,35.0,28.0,-100.00,WSW,238,5.0,15.0,75,0.01,,,0.06,508.000000,,2013-02-23 23:21:00,
2013-02-23 15:42:00,33.0,29.0,-100.00,East,90,4.0,11.0,86,0.00,,,0.06,166.000000,,2013-02-23 23:42:00,
2013-02-23 15:52:00,33.0,29.0,-100.00,East,90,4.0,11.0,86,0.00,,,0.06,166.000000,,2013-02-23 23:52:00,
2013-02-23 16:01:00,33.0,29.0,-100.00,East,90,4.0,11.0,86,0.00,,,0.06,166.000000,,2013-02-24 00:01:00,
2013-02-23 16:42:00,32.0,28.0,-100.00,NW,323,4.0,10.0,86,0.00,,,0.06,122.000000,,2013-02-24 00:42:00,
2013-02-23 16:52:00,32.0,28.0,-100.00,NW,323,4.0,10.0,86,0.00,,,0.06,122.000000,,2013-02-24 00:52:00,
2013-02-23 17:01:00,32.0,28.0,-100.00,NW,323,4.0,10.0,86,0.00,,,0.06,122.000000,,2013-02-24 01:01:00,
2013-02-23 17:11:00,32.0,28.0,-100.00,NW,323,4.0,10.0,86,0.00,,,0.06,122.000000,,2013-02-24 01:11:00,
2013-02-23 17:21:00,32.0,28.0,-100.00,NW,323,4.0,10.0,86,0.00,,,0.06,122.000000,,2013-02-24 01:21:00,
2013-02-23 17:42:00,33.0,11.0,-100.00,ENE,64,3.0,11.0,40,0.00,,,0.06,129.000000,,2013-02-24 01:42:00,
2013-02-23 17:52:00,33.0,11.0,-100.00,ENE,64,3.0,11.0,40,0.00,,,0.06,129.000000,,2013-02-24 01:52:00,
2013-02-23 18:01:00,33.0,11.0,-100.00,ENE,64,3.0,11.0,40,0.00,,,0.06,129.000000,,2013-02-24 02:01:00,
2013-02-23 18:11:00,33.0,11.0,-100.00,ENE,64,3.0,11.0,40,0.00,,,0.06,129.000000,,2013-02-24 02:11:00,
2013-02-23 18:21:00,33.0,11.0,-100.00,ENE,64,3.0,11.0,40,0.00,,,0.06,129.000000,,2013-02-24 02:21:00,
2013-02-23 18:42:00,29.0,9.0,-100.00,North,4,4.0,11.0,43,0.00,,,0.06,13.000000,,2013-02-24 02:42:00,
2013-02-23 18:52:00,29.0,9.0,-100.00,North,4,4.0,11.0,43,0.00,,,0.06,13.000000,,2013-02-24 02:52:00,
2013-02-23 19:01:00,29.0,9.0,-100.00,North,4,4.0,11.0,43,0.00,,,0.06,13.000000,,2013-02-24 03:01:00,
2013-02-23 19:11:00,29.0,9.0,-100.00,North,4,4.0,11.0,43,0.00,,,0.06,13.000000,,2013-02-24 03:11:00,
2013-02-23 19:21:00,29.0,9.0,-100.00,North,4,4.0,11.0,43,0.00,,,0.06,13.000000,,2013-02-24 03:21:00,
2013-02-23 19:42:00,27.0,8.0,-100.00,NNE,33,5.0,12.0,44,0.00,,,0.06,0.000000,,2013-02-24 03:42:00,
2013-02-23 19:52:00,27.0,8.0,-100.00,NNE,33,5.0,12.0,44,0.00,,,0.06,0.000000,,2013-02-24 03:52:00,
2013-02-23 20:01:00,27.0,8.0,-100.00,NNE,33,5.0,12.0,44,0.00,,,0.06,0.000000,,2013-02-24 04:01:00,
2013-02-23 20:11:00,27.0,8.0,-100.00,NNE,33,5.0,12.0,44,0.00,,,0.06,0.000000,,2013-02-24 04:11:00,
2013-02-23 20:21:00,27.0,8.0,-100.00,NNE,33,5.0,12.0,44,0.00,,,0.06,0.000000,,2013-02-24 04:21:00,
2013-02-23 20:42:00,28.0,8.0,-100.00,ESE,109,10.0,26.0,43,0.00,,,0.06,0.000000,,2013-02-24 04:42:00,
2013-02-23 20:52:00,28.0,8.0,-100.00,ESE,109,10.0,26.0,43,0.00,,,0.06,0.000000,,2013-02-24 04:52:00,
2013-02-23 21:01:00,28.0,8.0,-100.00,ESE,109,10.0,26.0,43,0.00,,,0.06,0.000000,,2013-02-24 05:01:00,
2013-02-23 21:11:00,28.0,8.0,-100.00,ESE,109,10.0,26.0,43,0.00,,,0.06,0.000000,,2013-02-24 05:11:00,
2013-02-23 21:21:00,28.0,8.0,-100.00,ESE,109,10.0,26.0,43,0.00,,,0.06,0.000000,,2013-02-24 05:21:00,
2013-02-23 21:42:00,27.0,8.0,-100.00,SSW,206,5.0,30.0,43,0.00,,,0.06,0.000000,,2013-02-24 05:42:00,
2013-02-23 21:52:00,27.0,8.0,-100.00,SSW,206,5.0,30.0,43,0.00,,,0.06,0.000000,,2013-02-24 05:52:00,
2013-02-23 22:01:00,27.0,8.0,-100.00,SSW,206,5.0,30.0,43,0.00,,,0.06,0.000000,,2013-02-24 06:01:00,
2013-02-23 22:11:00,27.0,8.0,-100.00,SSW,206,5.0,30.0,43,0.00,,,0.06,0.000000,,2013-02-24 06:11:00,
2013-02-23 22:21:00,27.0,8.0,-100.00,SSW,206,5.0,30.0,43,0.00,,,0.06,0.000000,,2013-02-24 06:21:00,
2013-02-23 22:42:00,26.0,7.0,-100.00,South,184,7.0,17.0,44,0.00,,,0.06,0.000000,,2013-02-24 06:42:00,
2013-02-23 22:52:00,26.0,7.0,-100.00,South,184,7.0,17.0,44,0.00,,,0.06,0.000000,,2013-02-24 06:52:00,
2013-02-23 23:01:00,26.0,7.0,-100.00,South,184,7.0,17.0,44,0.00,,,0.06,0.000000,,2013-02-24 07:01:00,
2013-02-23 23:11:00,26.0,7.0,-100.00,South,184,7.0,17.0,44,0.00,,,0.06,0.000000,,2013-02-24 07:11:00,
2013-02-23 23:21:00,26.0,7.0,-100.00,South,184,7.0,17.0,44,0.00,,,0.06,0.000000,,2013-02-24 07:21:00,
2013-02-23 23:42:00,27.0,5.0,-100.00,SSW,199,7.0,18.0,38,0.00,,,0.06,0.000000,,2013-02-24 07:42:00,
2013-02-23 23:52:00,27.0,5.0,-100.00,SSW,199,7.0,18.0,38,0.00,,,0.06,0.000000,,2013-02-24 07:52:00,